Volver al catálogo

STARLINK-31206

ActivoComunicacionesVLEO
NORAD 59028·PAYLOAD·🇺🇸 United States

Lanzado Feb 25, 2024 desde Cape Canaveral Space Force Station

Loading…

Próximos Pases (próximas 24 horas)

TLE

ActualizadoSource: CelesTrak SupGP

Época: Sep 14, 2026, 21:28 UTC

1 59028C 24038F   26257.89493056 -.00026716  00000+0 -96761-3 0  2579
2 59028  43.0017 333.4892 0001740 274.6393  40.6703 15.27592016    18

Sigue STARLINK-31206 en tiempo real con AllMySat

Download on the App Store